This demonstration page uses our WeatherBlox Daily Observations layout. Learn more.

Hourly Observations for August 3, 2015

Temp ( °F °C ) Dew Point ( °F °C ) Humidity (%) Winds ( mph kmh ) Pressure ( in mb ) Visibility ( mi km ) Precip ( " mm )
12:15 am 00:15 Clear 68 20 55 13 64 64 Calm 29.85 1011 10 16.09344 0 0
12:35 am 00:35 Clear 66 19 55 13 68 68 NE 8 13 29.85 1011 10 16.09344 0 0
12:55 am 00:55 Clear 66 19 55 13 68 68 ENE 6 9 29.91 1013 10 16.09344 0 0
1:15 am 01:15 Clear 64 18 57 14 78 78 NE 3 6 29.91 1013 10 16.09344 0 0
1:35 am 01:35 Clear 63 17 57 14 83 83 Calm 29.91 1013 10 16.09344 0 0
1:55 am 01:55 Clear 64 18 57 14 78 78 Calm 29.91 1013 10 16.09344 0 0
2:15 am 02:15 Clear 63 17 57 14 83 83 Calm 29.91 1013 10 16.09344 0 0
2:35 am 02:35 Clear 63 17 57 14 83 83 N 3 6 29.91 1013 10 16.09344 0 0
2:55 am 02:55 Clear 61 16 57 14 88 88 N 5 7 29.91 1013 10 16.09344 0 0
3:15 am 03:15 Clear 61 16 57 14 88 88 NNE 7 11 29.91 1013 10 16.09344 0 0
3:35 am 03:35 Clear 61 16 57 14 88 88 N 7 11 29.91 1013 10 16.09344 0 0
3:55 am 03:55 Clear 61 16 57 14 88 88 NNE 7 11 29.88 1012 10 16.09344 0 0
4:15 am 04:15 Clear 61 16 57 14 88 88 NNE 6 9 29.91 1013 10 16.09344 0 0
4:35 am 04:35 Clear 61 16 57 14 88 88 NNE 7 11 29.91 1013 10 16.09344 0 0
4:55 am 04:55 Clear 61 16 57 14 88 88 NNE 6 9 29.91 1013 10 16.09344 0 0
5:15 am 05:15 Clear 61 16 59 15 94 94 NNE 3 6 29.91 1013 10 16.09344 0 0
5:35 am 05:35 Clear 63 17 59 15 88 88 NE 3 6 29.91 1013 10 16.09344 0 0
5:55 am 05:55 Clear 63 17 61 16 94 94 E 3 6 29.91 1013 10 16.09344 0 0
6:15 am 06:15 Clear 63 17 61 16 94 94 Calm 29.91 1013 10 16.09344 0 0
6:35 am 06:35 Clear 63 17 61 16 94 94 NE 7 11 29.91 1013 7 11.265408 0 0
6:55 am 06:55 Sunny with Mist and Fog 63 17 61 16 94 94 E 8 13 29.91 1013 5 8.04672 0 0
7:15 am 07:15 Sunny 64 18 63 17 94 94 E 8 13 29.91 1013 7 11.265408 0 0
7:35 am 07:35 Sunny 64 18 63 17 94 94 ENE 6 9 29.91 1013 10 16.09344 0 0
7:55 am 07:55 Sunny 64 18 63 17 94 94 ENE 5 7 29.94 1014 10 16.09344 0 0
8:15 am 08:15 Partly Cloudy 66 19 64 18 94 94 ENE 5 7 29.94 1014 7 11.265408 0 0
8:35 am 08:35 Mostly Cloudy 68 20 64 18 88 88 NE 9 15 29.91 1013 10 16.09344 0 0
8:55 am 08:55 Mostly Cloudy 68 20 64 18 88 88 ENE 9 15 29.91 1013 10 16.09344 0 0
9:15 am 09:15 Cloudy 70 21 66 19 88 88 NE 12 19 29.91 1013 10 16.09344 0 0
9:35 am 09:35 Cloudy 70 21 66 19 88 88 ENE 13 20 29.94 1014 10 16.09344 0 0
9:55 am 09:55 Cloudy 72 22 66 19 83 83 E 15 24 29.94 1014 10 16.09344 0 0
10:15 am 10:15 Cloudy 73 23 66 19 78 78 ENE 15 24 29.94 1014 10 16.09344 0 0
10:35 am 10:35 Cloudy 73 23 66 19 78 78 E 14 22 29.94 1014 10 16.09344 0 0
10:55 am 10:55 Partly Cloudy 75 24 66 19 74 74 E 14 22 29.91 1013 10 16.09344 0 0
11:15 am 11:15 Sunny 77 25 64 18 65 65 E 17 28 29.91 1013 10 16.09344 0 0
11:35 am 11:35 Sunny 77 25 64 18 65 65 E 16 26 29.88 1012 10 16.09344 0 0
11:55 am 11:55 Sunny 79 26 64 18 61 61 E 17 28 29.88 1012 10 16.09344 0 0
12:15 pm 12:15 Sunny 79 26 64 18 61 61 E 16 26 29.88 1012 10 16.09344 0 0
12:35 pm 12:35 Sunny 81 27 66 19 62 62 ESE 14 22 29.85 1011 10 16.09344 0 0
12:55 pm 12:55 Sunny 81 27 66 19 62 62 E 13 20 29.85 1011 10 16.09344 0 0
1:15 pm 13:15 Sunny 81 27 66 19 62 62 E 12 19 29.85 1011 10 16.09344 0 0
1:35 pm 13:35 Sunny 82 28 68 20 62 62 ESE 9 15 29.85 1011 10 16.09344 0 0
1:55 pm 13:55 Sunny 84 29 66 19 55 55 E 9 15 29.85 1011 10 16.09344 0 0
2:15 pm 14:15 Sunny 84 29 66 19 55 55 ESE 10 17 29.85 1011 10 16.09344 0 0
2:35 pm 14:35 Sunny 84 29 68 20 58 58 E 8 13 29.83 1010 10 16.09344 0 0
2:55 pm 14:55 Sunny 84 29 68 20 58 58 E 13 20 29.83 1010 10 16.09344 0 0
3:15 pm 15:15 Sunny 84 29 68 20 58 58 E 8 13 29.83 1010 10 16.09344 0 0
3:35 pm 15:35 Sunny 86 30 68 20 55 55 E 12 19 29.83 1010 10 16.09344 0 0
3:55 pm 15:55 Sunny 84 29 68 20 58 58 E 10 17 29.83 1010 10 16.09344 0 0
4:15 pm 16:15 Sunny 84 29 68 20 58 58 E 9 15 29.83 1010 10 16.09344 0 0
4:35 pm 16:35 Sunny 84 29 68 20 58 58 E 8 13 29.83 1010 10 16.09344 0 0
4:55 pm 16:55 Sunny 84 29 70 21 62 62 E 8 13 29.83 1010 10 16.09344 0 0
5:15 pm 17:15 Sunny 82 28 70 21 66 66 E 6 9 29.83 1010 10 16.09344 0 0
5:35 pm 17:35 Sunny 82 28 70 21 66 66 ENE 9 15 29.8 1009 10 16.09344 0 0
5:55 pm 17:55 Sunny 81 27 72 22 74 74 E 9 15 29.8 1009 10 16.09344 0 0
6:15 pm 18:15 Sunny 81 27 72 22 74 74 E 8 13 29.83 1010 10 16.09344 0 0
6:35 pm 18:35 Sunny 79 26 72 22 79 79 E 10 17 29.83 1010 10 16.09344 0 0
6:55 pm 18:55 Sunny 79 26 72 22 79 79 E 10 17 29.83 1010 10 16.09344 0 0
7:15 pm 19:15 Partly Cloudy 77 25 72 22 83 83 E 9 15 29.83 1010 10 16.09344 0 0
7:35 pm 19:35 Partly Cloudy 77 25 70 21 79 79 E 9 15 29.83 1010 10 16.09344 0 0
7:55 pm 19:55 Partly Cloudy 77 25 70 21 79 79 E 10 17 29.83 1010 10 16.09344 0 0
8:15 pm 20:15 Sunny 77 25 70 21 79 79 E 9 15 29.83 1010 10 16.09344 0 0
8:35 pm 20:35 Sunny 75 24 70 21 83 83 E 10 17 29.83 1010 10 16.09344 0 0
8:55 pm 20:55 Clear 75 24 70 21 83 83 E 10 17 29.83 1010 10 16.09344 0 0
9:15 pm 21:15 Clear 73 23 70 21 89 89 E 8 13 29.83 1010 10 16.09344 0 0
9:35 pm 21:35 Clear 73 23 70 21 89 89 E 10 17 29.83 1010 10 16.09344 0 0
9:55 pm 21:55 Clear 73 23 68 20 83 83 E 10 17 29.85 1011 10 16.09344 0 0
10:15 pm 22:15 Clear 72 22 68 20 88 88 E 8 13 29.88 1012 10 16.09344 0 0
10:35 pm 22:35 Clear 72 22 66 19 83 83 E 8 13 29.88 1012 10 16.09344 0 0
10:55 pm 22:55 Clear 72 22 66 19 83 83 E 9 15 29.88 1012 10 16.09344 0 0
11:15 pm 23:15 Clear 72 22 66 19 83 83 E 8 13 29.88 1012 10 16.09344 0 0
11:35 pm 23:35 Clear 70 21 66 19 88 88 E 9 15 29.88 1012 10 16.09344 0 0
11:55 pm 23:55 Clear 70 21 66 19 88 88 E 8 13 29.88 1012 10 16.09344 0 0

Powered by AerisWeather